Weather History for Sparta, TN

Change the Weather History Date:

Wednesday, August 14, 2013

  Actual Average (KCSV) Record (KCSV)
Temperature  
Mean Temperature 66 °F 74 °F  
Max Temperature 75 °F 84 °F 94 °F (1954)
Min Temperature 57 °F 65 °F 50 °F (1967)
Degree Days  
Heating Degree Days 0    
Month to date heating degree days  
Since 1 June heating degree days  
Since 1 July heating degree days  
Cooling Degree Days 1    
Month to date cooling degree days  
Year to date cooling degree days  
Since 1 June cooling degree days  
Growing Degree Days 16 (Base 50)    
Moisture  
Dew Point 58 °F    
Average Humidity 77    
Maximum Humidity 94    
Minimum Humidity 50    
Precipitation  
Precipitation 0.00 in 0.13 in 1.75 in (1977)
Month to date precipitation 1.98  
Year to date precipitation 36.11  
Sea Level Pressure  
Sea Level Pressure 30.06 in    
Wind  
Wind Speed 5 mph (NNE)    
Max Wind Speed 13 mph    
Max Gust Speed -    
Visibility 10 miles    
Events      
T = Trace of Precipitation, MM = Missing Value Source: NWS Daily Summary

Daily Weather History Graph

Daily Weather History Graph

Search for Another Location

Airport:

Trip Planner

Search our weather history database for the weather conditions in past years. The results will help you decide how hot, cold, wet, or windy it might be!

Date:

Astronomy

Aug. 14, 2013 Rise Set
Actual Time 5:59 AM CDT 7:33 PM CDT
Civil Twilight 5:32 AM CDT 8:00 PM CDT
Nautical Twilight 4:59 AM CDT 8:32 PM CDT
Astronomical Twilight 4:25 AM CDT 9:07 PM CDT
Moon 1:42 PM CDT (8/14) No Moon Set
Length of Visible Light 14h 27m
Length of Day
13h 33m
First Quarter, 53% of the Moon is Illuminated
Aug 14
First Quarter
Aug 20
Full
Aug 28
Last Quarter
Sep 5
New
Sep 12
First Quarter

Hourly Weather History & Observations

Time (CDT) Temp. Dew Point Humidity Pressure Visibility Wind Dir Wind Speed Gust Speed Precip Events Conditions
12:35 AM 66.2 °F 64.4 °F 94% 30.01 in 10.0 mi Calm Calm - N/A   Clear
12:55 AM 66.2 °F 64.4 °F 94% 30.01 in 10.0 mi NE 3.5 mph - N/A   Clear
1:15 AM 66.2 °F 64.4 °F 94% 30.01 in 10.0 mi NNE 4.6 mph - N/A   Clear
1:35 AM 66.2 °F 62.6 °F 88% 30.01 in 10.0 mi NE 6.9 mph - N/A   Clear
1:55 AM 66.2 °F 62.6 °F 88% 30.01 in 10.0 mi Variable 4.6 mph - N/A   Clear
2:15 AM 66.2 °F 62.6 °F 88% 30.01 in 10.0 mi NNE 4.6 mph - N/A   Clear
2:35 AM 64.4 °F 60.8 °F 88% 30.01 in 10.0 mi NE 6.9 mph - N/A   Clear
2:55 AM 64.4 °F 60.8 °F 88% 30.02 in 10.0 mi NNE 5.8 mph - N/A   Clear
3:15 AM 64.4 °F 60.8 °F 88% 30.01 in 10.0 mi Variable 5.8 mph - N/A   Clear
3:35 AM 64.4 °F 60.8 °F 88% 30.02 in 10.0 mi ENE 5.8 mph - N/A   Clear
3:55 AM 62.6 °F 60.8 °F 94% 30.02 in 10.0 mi NNE 4.6 mph - N/A   Clear
4:15 AM 62.6 °F 60.8 °F 94% 30.03 in 10.0 mi NE 5.8 mph - N/A   Clear
4:35 AM 62.6 °F 60.8 °F 94% 30.03 in 10.0 mi NNE 4.6 mph - N/A   Clear
4:55 AM 62.6 °F 59.0 °F 88% 30.03 in 10.0 mi NNE 5.8 mph - N/A   Clear
5:15 AM 62.6 °F 59.0 °F 88% 30.04 in 10.0 mi NE 5.8 mph - N/A   Clear
5:35 AM 60.8 °F 59.0 °F 94% 30.04 in 10.0 mi NNE 4.6 mph - N/A   Clear
5:55 AM 60.8 °F 57.2 °F 88% 30.05 in 10.0 mi NNE 4.6 mph - N/A   Scattered Clouds
6:15 AM 60.8 °F 57.2 °F 88% 30.05 in 10.0 mi North 3.5 mph - N/A   Overcast
6:35 AM 60.8 °F 57.2 °F 88% 30.05 in 10.0 mi NNE 4.6 mph - N/A   Mostly Cloudy
6:55 AM 62.6 °F 57.2 °F 82% 30.05 in 10.0 mi NNE 3.5 mph - N/A   Partly Cloudy
7:15 AM 62.6 °F 57.2 °F 82% 30.06 in 10.0 mi Calm Calm - N/A   Clear
7:35 AM 62.6 °F 59.0 °F 88% 30.06 in 10.0 mi NE 3.5 mph - N/A   Partly Cloudy
7:55 AM 62.6 °F 59.0 °F 88% 30.06 in 10.0 mi NNE 3.5 mph - N/A   Mostly Cloudy
8:15 AM 64.4 °F 59.0 °F 83% 30.07 in 10.0 mi NE 3.5 mph - N/A   Mostly Cloudy
8:35 AM 64.4 °F 59.0 °F 83% 30.07 in 10.0 mi NNE 4.6 mph - N/A   Overcast
8:55 AM 66.2 °F 60.8 °F 83% 30.07 in 10.0 mi NNE 4.6 mph - N/A   Mostly Cloudy
9:15 AM 66.2 °F 60.8 °F 83% 30.07 in 10.0 mi NNE 3.5 mph - N/A   Mostly Cloudy
9:35 AM 68.0 °F 60.8 °F 78% 30.07 in 10.0 mi North 5.8 mph - N/A   Mostly Cloudy
9:55 AM 69.8 °F 60.8 °F 73% 30.08 in 10.0 mi NNE 4.6 mph - N/A   Mostly Cloudy
10:15 AM 69.8 °F 60.8 °F 73% 30.09 in 10.0 mi NNE 8.1 mph - N/A   Mostly Cloudy
10:35 AM 69.8 °F 60.8 °F 73% 30.09 in 10.0 mi North 8.1 mph - N/A   Partly Cloudy
10:55 AM 69.8 °F 60.8 °F 73% 30.09 in 10.0 mi NNE 8.1 mph - N/A   Partly Cloudy
11:15 AM 69.8 °F 60.8 °F 73% 30.09 in 10.0 mi NE 9.2 mph - N/A   Partly Cloudy
11:35 AM 69.8 °F 60.8 °F 73% 30.09 in 10.0 mi Variable 6.9 mph - N/A   Partly Cloudy
11:55 AM 71.6 °F 60.8 °F 69% 30.09 in 10.0 mi NE 9.2 mph - N/A   Partly Cloudy
12:15 PM 71.6 °F 60.8 °F 69% 30.09 in 10.0 mi NNE 10.4 mph - N/A   Clear
12:35 PM 71.6 °F 60.8 °F 69% 30.09 in 10.0 mi NE 12.7 mph - N/A   Clear
12:55 PM 71.6 °F 60.8 °F 69% 30.08 in 10.0 mi North 8.1 mph - N/A   Scattered Clouds
1:15 PM 71.6 °F 57.2 °F 60% 30.08 in 10.0 mi North 8.1 mph - N/A   Scattered Clouds
1:35 PM 73.4 °F 59.0 °F 61% 30.08 in 10.0 mi ENE 8.1 mph - N/A   Partly Cloudy
1:55 PM 73.4 °F 57.2 °F 57% 30.07 in 10.0 mi NE 10.4 mph - N/A   Clear
2:55 PM 75.2 °F 55.4 °F 50% 30.06 in 10.0 mi Variable 6.9 mph - N/A   Clear
3:15 PM 75.2 °F 57.2 °F 53% 30.05 in 10.0 mi North 8.1 mph - N/A   Clear
3:35 PM 75.2 °F 57.2 °F 53% 30.05 in 10.0 mi NE 9.2 mph - N/A   Partly Cloudy
3:55 PM 75.2 °F 55.4 °F 50% 30.06 in 10.0 mi NNE 5.8 mph - N/A   Partly Cloudy
4:15 PM 73.4 °F 55.4 °F 53% 30.06 in 10.0 mi NE 8.1 mph - N/A   Scattered Clouds
4:35 PM 73.4 °F 57.2 °F 57% 30.06 in 10.0 mi East 5.8 mph - N/A   Partly Cloudy
4:55 PM 73.4 °F 55.4 °F 53% 30.06 in 10.0 mi NNE 9.2 mph - N/A   Clear
5:15 PM 73.4 °F 55.4 °F 53% 30.06 in 10.0 mi Variable 6.9 mph - N/A   Clear
5:35 PM 73.4 °F 55.4 °F 53% 30.05 in 10.0 mi North 6.9 mph - N/A   Clear
5:55 PM 71.6 °F 55.4 °F 57% 30.06 in 10.0 mi NE 4.6 mph - N/A   Clear
6:15 PM 71.6 °F 55.4 °F 57% 30.06 in 10.0 mi Variable 6.9 mph - N/A   Clear
6:35 PM 69.8 °F 55.4 °F 60% 30.06 in 10.0 mi NE 6.9 mph - N/A   Clear
6:55 PM 69.8 °F 55.4 °F 60% 30.06 in 10.0 mi Variable 5.8 mph - N/A   Clear
7:15 PM 68.0 °F 53.6 °F 60% 30.08 in 10.0 mi NNE 3.5 mph - N/A   Clear
7:35 PM 66.2 °F 55.4 °F 68% 30.08 in 10.0 mi Calm Calm - N/A   Clear
7:55 PM 64.4 °F 55.4 °F 73% 30.08 in 10.0 mi NNE 3.5 mph - N/A   Clear
8:15 PM 62.6 °F 55.4 °F 77% 30.08 in 10.0 mi Calm Calm - N/A   Clear
8:35 PM 60.8 °F 57.2 °F 88% 30.08 in 10.0 mi NNE 3.5 mph - N/A   Clear
8:55 PM 60.8 °F 55.4 °F 82% 30.09 in 10.0 mi NE 3.5 mph - N/A   Clear
9:15 PM 60.8 °F 55.4 °F 82% 30.09 in 10.0 mi Calm Calm - N/A   Clear
9:35 PM 59.0 °F 55.4 °F 88% 30.09 in 10.0 mi Calm Calm - N/A   Clear
9:55 PM 59.0 °F 55.4 °F 88% 30.10 in 10.0 mi Calm Calm - N/A   Clear
10:15 PM 57.2 °F 55.4 °F 94% 30.10 in 10.0 mi Calm Calm - N/A   Clear
10:35 PM 57.2 °F 55.4 °F 94% 30.09 in 10.0 mi Variable 3.5 mph - N/A   Clear
10:55 PM 59.0 °F 55.4 °F 88% 30.09 in 10.0 mi NNE 3.5 mph - N/A   Clear
11:15 PM 57.2 °F 55.4 °F 94% 30.09 in 10.0 mi NE 3.5 mph - N/A   Clear
11:35 PM 57.2 °F 55.4 °F 94% 30.10 in 10.0 mi NE 3.5 mph - N/A   Clear
11:55 PM 57.2 °F 53.6 °F 88% 30.09 in 10.0 mi NNE 3.5 mph - N/A   Clear